sat.trackr.live / text

‹ back to catalog

STARLINK-37268

NORAD 68747 · 2026-082V

PAYLOAD ACTIVE UNKNOWN

§ Identity

Operator
Country
US
Launch date
2026-04-15
Launch site
AFWTR
Launch vehicle
Mass (kg)
RCS (m²)

Purposes: comms

External: N2YO · Heavens-Above · Gunter

§ Orbital elements

Epoch: 2026-09-19T20:59:23.705088Z

Period
93.91 min
Inclination
97.2855°
Eccentricity
0.0002021
Mean motion
15.33442934 rev/d
Perigee alt
464.2 km
Apogee alt
466.9 km
Semi-major
6,843.7 km
B*
4.7481e-4
RAAN
125.0946°
Arg perigee
92.6661°
Mean anomaly
267.4813°
Rev number
2,421

§ Raw data

STARLINK-372681 68747U 26082V   26262.87457992  .00015284  00000+0  47481-3 0  99952 68747  97.2855 125.0946 0002021  92.6661 267.4813 15.33442934 24210

JSON: /api/v1/satellites/68747 · /tle

For live sub-satellite position, see the globe view (requires WebGL).

§ Visibility from observer

Set your observer location to see the next 7 days of passes ≥ 10°. The values pass through the URL so the page stays shareable.

No JS? Fill the form by hand. The geolocation button needs JavaScript.